Location: Wellington
(41.3000°S, 174.7830°E)
Time: 22:56:36
(UTC+13:00)

Cosmos 2219 Rocket - Pass Details

Date: 24 January 2019
Orbit: 829 x 845 km, 71.0° (Epoch: 15 October)

Event Time Altitude Azimuth Distance (km) Brightness Sun altitude
Exits shadow 23:32:43 55° 43° (NE) 1,016 2.2 -23.4°
Maximum altitude 23:33:21 59° 71° (ENE) 983 2.2 -23.4°
Drops below altitude 10° 23:38:58 10° 149° (SSE) 2,497 5.0 -24.0°
Sets 23:41:29 0° 152° (SSE) 3,440 5.8 -24.2°
